Regional Weather Roundup
Issued by NWS Wakefield, VA

Home | Current Version | Previous Version | Text Only | Print | Product List | Glossary On
Versions: 1 2 3 4 5 6 7 8 9 10 11 12 13 14 15 16 17 18 19 20 21 22 23 24 25 26 27 28 29 30 31 32 33 34 35 36 37 38 39 40 41 42 43 44 45 46 47 48 49 50
000
ASUS41 KAKQ 021110
RWRAKQ

REGIONAL WEATHER ROUNDUP
NATIONAL WEATHER SERVICE WAKEFIELD VA
600 AM EST MON MAR 02 2015

Note: "fair" indicates few or no clouds below 12,000 feet with no
significant weather and/or obstructions to visibility. * = Denotes
station may not report precipitation (e.g., rain,snow,etc.),
thunder or fog.

VAZ042-051-052>054-056-021200-
NORTHERN VIRGINIA

CITY           SKY/WX    TMP DP  RH WIND       PRES   REMARKS
WASH NATIONAL  CLOUDY    34  31  88 W3        30.13R FOG
DULLES         FOG       31  30  96 CALM      30.10S VSB 1/4
FORT BELVOIR   CLOUDY    32  32 100 CALM      30.12S FOG
QUANTICO       FOG       33  30  88 NE6       30.14R VSB 1/4
FREDERICKSBRG* CLOUDY    34  34 100 NW3       30.10S FOG
STAFFORD*      CLOUDY    32  32  99 N5        30.17R FOG
WARRENTON      FOG       33  33 100 N5        30.11R VSB 1/4
CULPEPER*      FOG       34  34 100 NE3       30.12R VSB 1/4
MANASSAS*      CLOUDY    34  34 100 CALM      30.12R
LEESBURG*      CLOUDY    32  32 100 SW3       30.12R FOG
WINCHESTER     CLOUDY    32  28  86 S3        30.10R FOG
FRONT ROYAL*   CLOUDY    30  30 100 CALM      30.10R
LURAY*         PTSUNNY   39  37  93 W12G18    30.08R
$$

VAZ048-049-060>072-079>083-021200-
CENTRAL AND SOUTH CENTRAL VIRGINIA

CITY           SKY/WX    TMP DP  RH WIND       PRES   REMARKS
RICHMOND       FOG       34  32  92 SW8       30.12S VSB 1/2
CHESTERFIELD*  CLOUDY    34  23  64 SW3       30.13F
PETERSBURG*    LGT RAIN  35  35 100 SW6       30.14S
HANOVER        CLOUDY    34  33  96 SW3       30.12F FOG
TAPPAHANNOCK*  CLOUDY    34  32  93 SW5       30.11R FOG
QUINTON*       CLOUDY    32  32  99 CALM      30.13R VSB 3/4
CHARLOTTSVILLE PTCLDY    31  30  96 S7        30.07S FOG
GORDONSVILLE*  CLOUDY    32  32  99 SW6       30.08S FOG
ORANGE*        CLOUDY    34  34 100 CALM      30.10R FOG
LOUISA*        FOG       34  34 100 SW3       30.07F VSB 3/4
BUMPASS*       CLOUDY    32  32  99 SW3       30.09S VSB 1
FARMVILLE*     CLOUDY    36  36 100 S5        30.12S FOG
CREWE*         CLOUDY    35  33  94 SW5       30.11F
FORT PICKETT*  CLOUDY    33  33  98 SW8       30.12F VSB 1/2
CHASE CITY*    CLOUDY    36  36 100 CALM      30.14F VSB 1/4
CLARKSVILLE*   CLOUDY    32  32 100 SW3       30.15S VSB 1/4
SOUTH HILL*    CLOUDY    32  32 100 S6        30.19F VSB 1/4
LAWRENCEVILLE* CLOUDY    32  32 100 SW5       30.14F VSB 1/2
EMPORIA*       FOG       32  32 100 CALM      30.17F VSB 3/4
$$

VAZ088>098-021200-
SOUTHEAST VIRGINIA

CITY           SKY/WX    TMP DP  RH WIND       PRES   REMARKS
NORFOLK        CLOUDY    35  33  92 SW10      30.13R FOG
VIRGINIA BEACH FOG       37  34  89 SW9       30.13R VSB 1/2
NORFOLK NAVAL  FOG       37  34  89 SW6       30.15R VSB 1
WEST POINT*    CLOUDY    35  33  92 SW5       30.15R
SALUDA*        CLOUDY    32  32  99 CALM      30.11F
NEWPORT NEWS   CLOUDY    35  33  92 W10       30.14S FOG
LANGLEY AFB    CLOUDY    32  32 100 W14       30.13F FOG     WCI  22
FORT EUSTIS    CLOUDY    32 N/A N/A VRB5      30.12S
WILLIAMSBURG*  CLOUDY    36  34  93 W6        30.15R
HR EXEC AP*    CLOUDY    36  32  87 SW5       30.17S
FRANKLIN*      CLOUDY    33  33 100 SW5       30.17R FOG
WAKEFIELD      CLOUDY    33  32  96 SW5       30.16S FOG
$$

VAZ020-022-025-037-045-021200-
WEST CENTRAL AND SOUTHWEST VIRGINIA

CITY           SKY/WX    TMP DP  RH WIND       PRES   REMARKS
STAUNTON*      MOCLDY    42  37  83 SW6       30.10R
WAYNESBORO*    PTSUNNY   45  38  76 SW10G16   30.09R
HOT SPRINGS VA SNOW      35  35 100 W24G30    30.06R VSB<1/4 WCI  22
LYNCHBURG      MOCLDY    36  36 100 SW3       30.12S FOG
DANVILLE       FOG       37  35  92 SW10      30.16S VSB 1/2
SOUTH BOSTON*  CLOUDY    36  35  95 SW5       30.15S
MARTINSVILLE   CLOUDY    37  37 100 CALM      30.18S FOG
ROANOKE        MOCLDY    47  41  80 W10       30.15R
BLACKSBURG     CLOUDY    40  40  97 W5        30.18S
DUBLIN*        CLOUDY    44  44 100 W8        30.19R
MARION*        LGT RAIN  41  40  95 W16G25    30.24R
HILLSVILLE*    MOCLDY    44  42  93 W13G22    30.16S
RICHLANDS*     LGT RAIN  37  35  94 NW7       30.26R VSB 1
WISE*          CLOUDY    36  36 100 W13       30.29R
ABINGDON*      DRIZZLE   41  41 100 NW5       30.27R
$$

MDZ021>025-VAZ099-100-021200-
SOUTHERN MARYLAND AND THE DELMARVA PENINSULA

CITY           SKY/WX    TMP DP  RH WIND       PRES   REMARKS
PATUXENT RIVER FOG       32  31  96 N3        30.11R VSB 1/4
BAY BRIDGE APT   N/A     32  32 100 CALM      30.11R FOG
LEONARDTOWN    CLOUDY    32  32 100 CALM      30.13R VSB 1/2
DOVER          CLOUDY    32  32 100 CALM      30.10R
GEORGETOWN     CLOUDY    32  31  96 W5        30.10S FOG
EASTON         FOG       32  32 100 CALM      30.14R VSB 3/4
CAMBRIDGE      NOT AVBL
SALISBURY      FOG       35  32  88 W6        30.12R VSB 1/2
OCEAN CITY     FOG       32  32 100 CALM      30.10R VSB 3/4
WALLOPS ISLAND CLOUDY    32  32 100 NW7       30.13R FOG
ACCOMACK*      CLOUDY    32  32 100 W7        30.11S FOG
$$

NCZ012>017-030>032-021200-
NORTH CENTRAL AND EASTERN NORTH CAROLINA

CITY           SKY/WX    TMP DP  RH WIND       PRES   REMARKS
ROANOKE RAPIDS FOG       36  36 100 SW6       30.17F VSB 1/2
RALEIGH        LGT RAIN  37  35  92 W5        30.20R VSB 1/8
ELIZABETH CITY CLOUDY    37  37 100 SW9       30.18R FOG
AHOSKIE*       FOG       35  34  98 CALM      30.19R VSB 1/2
EDENTON*       FOG       37  37 100 W8        30.18R VSB 3/4
CURRITUCK*     CLOUDY    37  37  97 W8        30.17R FOG
KILL DEVIL HLS FOG       40  40 100 SW6       30.15R VSB 1/2
MANTEO         CLOUDY    39  39 100 SW7       30.17R
CAPE HATTERAS  FOG       40  40 100 W7        30.20R VSB 3/4
TARBORO*       FOG       39  38  98 SW3       30.20R VSB 3/4
GOLDSBORO      CLOUDY    40  40 100 SW6       30.18S FOG
WASHINGTON     FOG       40  39  99 SW7       30.20R VSB 3/4
GREENVILLE     CLOUDY    41  39  93 W5        30.20S FOG
NEW BERN       CLOUDY    44  42  93 SW6       30.21F FOG
WILMINGTON     FOG       44  44 100 SW7       30.22F VSB 3/4
$$

VAZ048-021200-
ELSEWHERE

CITY           SKY/WX    TMP DP  RH WIND       PRES   REMARKS
HARRISBURG PA  CLOUDY    28  25  88 CALM      30.11R FOG
BALTIMORE      CLOUDY    32  31  96 CALM      30.10R FOG
ANNAPOLIS      CLOUDY    32  31  96 MISG      30.11R FOG
ANDREWS AFB    FOG       32  32 100 CALM      30.10S VSB 1
PHILADELPHIA   CLOUDY    32  30  92 W8        30.10R FOG
HENDERSON NC   FOG       35  34  96 CALM      30.16S VSB 1/2
GREENSBORO     FOG       37  36  96 SW10      30.17R VSB 1/4
ROCKY MOUNT    CLOUDY    39  39 100 SW5       30.19S FOG
$$

VAZ100-021200-
MARINE

STATION/POSITION TIME  TEMP    WIND        PRES    WAVE   SWELL
                       AIR SEA DIR/SP/G            HT/PER HT/PER
                 (UTC) (F)     (DEG/KT/KT) (MB)    (FT/S) (FT/S)
BRANDYWINE LGT   1100   32 30              1019.2S
CAPE MAY NJ      1100   31 33              1018.7R
LEWES DE         1100   33 30              1018.6F
15NM E FENWICK I 1100   33 35              1018.8R   3/ 7
OCEAN-CITY-INLET 1100   32 32              1019.1R
WACHAPREAGUE VA  1100   33 33  270/  3/  5 1019.5F
THOMAS POINT MD  1100   32 31     CALM     1020.5R
COVE POINT MD    1100   32                 1019.8R
SOLOMONS ISLAND  1100      32                N/A
BISHOPS HEAD MD  1100   31 31              1019.1F
CAMBRIDGE MD     1100   32 32              1019.5R
LEWISETTA VA     1100   33 33              1019.0S
RAPPAHANNOCK LGT 1100          230/  6/  7 1020.2F
STINGRAY PT      1100   33 32  240/  6/  8   N/A
YORK RVR RNG VA  1100   34     250/  9/ 11 1019.6R
YORKTOWN VA      1100   34 33  260/  6/  9 1020.0R
DOMINION TERM VA 1100   34     270/  8/  9 1020.5F
KIPTOPEKE VA     1100      36  240/  8/ 10   N/A
CHES BAY BRIDGE  1100   34 33  240/ 10/ 11 1020.3S
CAPE HENRY VA    1100   35     250/  7/  9 1019.4R
CHESAPEAKE LGHT  1000   35     240/  8/  8 1020.6F
WILLOUBY STN VA  1100   34     240/  9/ 10 1020.8F
S CRANEY ISL VA  1100          250/  6/  8 1021.0S
CAPE HENRY BUOY  1100      35                N/A     3/ 6
1ST LANDING BUOY 1100   34 32  240/  8/ 10 1020.0S   1/ 4
OFFSHORE WE BUOY 1100      36                N/A     4/ 7   3/ 7
64NM E OF VA BCH 1100   43 51  240/ 14/ 17 1019.7F   4/ 7   2/ 7
DUCK PIER NC     1100   38 34  220/  9/ 11 1019.9F
44100 DUCK FRF   1000      37                N/A     4/ 7
44056 DUCK FRF   1100                        N/A     3/ 6
OREGON INLET NC  1100   40 42  210/  9/ 10 1021.4F
HATTERAS NC      1100   41 42  270/  7/  9 1022.5S
CAPE LOOKOUT NC  1000   45     260/ 11/ 13 1023.0R
$$



USA.gov is the U.S. government's official web portal to all federal, state and local government web resources and services.